Location: Bay Harbour
(38.2612°N, 75.2555°W)
Time: 01:45:36
(UTC+00:00)

H-2A R/B - Pass Details

Date: 29 October 2020
Orbit: 733 x 837 km, 98.2° (Epoch: 02 December)

Event Time Altitude Azimuth Distance (km) Brightness Sun altitude
Exits shadow 22:58:23 - 124° (SE) 2,910 4.6 -11.2°
Reaches altitude 10° 22:59:53 10° 115° (ESE) 2,434 4.1 -11.5°
Maximum altitude 23:04:00 23° 66° (ENE) 1,720 3.2 -12.3°
Drops below altitude 10° 23:08:09 10° 16° (NNE) 2,458 4.4 -13.1°
Sets 23:10:58 0° 2° (N) 3,394 5.3 -13.6°
